User: anonymous   Login
Location: Carabito
(9.8355°N, 67.9249°W)
Time: 05:09:35
(UTC+00:00)
Language:

ARIANE 5 DEB (SYLDA) - Orbit

View from above orbital plane
View from above orbital plane
View from above satellite
View from above satellite

Ground track
Ground track

The orbit data is extracted from the following two-line orbital elements,

1 26613U 00072F   24204.45841372 -.00000356  00000-0  96524-3 0  9997
2 26613   6.2209 258.2830 7348990  57.7299   7.2670  2.03072881175192
Epoch (UTC): 22 July 2024 11:00:06
Eccentricity: 0.7348990
inclination: 6.2209°
perigee height: 605 km
apogee height: 39320 km
right ascension of ascending node: 258.2830°
argument of perigee: 57.7299°
revolutions per day: 2.03072881
mean anomaly at epoch: 7.2670°
orbit number at epoch: 17519

The dashed part of the orbit path shows where the satellite is in the earth's shadow,  

DLR